Time,TemperatureF,DewpointF,PressureIn,WindDirection,WindDirectionDegrees,WindSpeedMPH,WindSpeedGustMPH,Humidity,HourlyPrecipIn,Conditions,Clouds,dailyrainin,SolarRadiationWatts/m^2,SoftwareType,DateUTC
2013-02-05 00:01:00,34.4,29.8,29.86,ENE,61,0.0,0.0,83,0.00,,CLR,0.00,0.00,VWS V14.01,2013-02-05 06:01:00,
2013-02-05 00:06:00,34.4,29.8,29.86,ENE,61,0.0,0.0,83,0.00,,CLR,0.00,0.00,VWS V14.01,2013-02-05 06:06:00,
2013-02-05 00:11:00,34.1,29.5,29.86,ENE,61,0.0,0.0,83,0.00,,CLR,0.00,0.00,VWS V14.01,2013-02-05 06:11:00,
2013-02-05 00:16:00,33.8,29.5,29.87,ENE,61,0.0,0.0,84,0.00,,CLR,0.00,0.00,VWS V14.01,2013-02-05 06:16:00,
2013-02-05 00:21:00,33.6,29.3,29.87,ENE,61,0.0,0.0,84,0.00,,CLR,0.00,0.00,VWS V14.01,2013-02-05 06:21:00,
2013-02-05 00:26:00,33.4,29.4,29.87,ENE,61,0.0,0.0,85,0.00,,CLR,0.00,0.00,VWS V14.01,2013-02-05 06:26:00,
2013-02-05 00:31:00,33.3,29.0,29.87,ENE,61,0.0,0.0,84,0.00,,CLR,0.00,0.00,VWS V14.01,2013-02-05 06:31:00,
2013-02-05 00:36:00,33.0,28.7,29.87,ENE,61,0.0,0.0,84,0.00,,CLR,0.00,0.00,VWS V14.01,2013-02-05 06:36:00,
2013-02-05 00:41:00,32.8,28.8,29.87,ENE,61,0.0,0.0,85,0.00,,CLR,0.00,0.00,VWS V14.01,2013-02-05 06:41:00,
2013-02-05 00:46:00,32.6,28.3,29.86,ENE,61,0.0,0.0,84,0.00,,CLR,0.00,0.00,VWS V14.01,2013-02-05 06:46:00,
2013-02-05 00:51:00,32.3,28.3,29.86,ENE,61,0.0,0.0,85,0.00,,CLR,0.00,0.00,VWS V14.01,2013-02-05 06:51:00,
2013-02-05 00:56:00,32.1,28.4,29.86,ENE,61,0.0,0.0,86,0.00,,CLR,0.00,0.00,VWS V14.01,2013-02-05 06:56:00,
2013-02-05 01:01:00,31.8,28.1,29.85,ENE,61,0.0,0.0,86,0.00,,CLR,0.00,0.00,VWS V14.01,2013-02-05 07:01:00,
2013-02-05 01:06:00,31.7,28.3,29.85,ENE,61,0.0,0.0,87,0.00,,CLR,0.00,0.00,VWS V14.01,2013-02-05 07:06:00,
2013-02-05 01:11:00,31.5,28.1,29.85,ENE,61,0.0,0.0,87,0.00,,CLR,0.00,0.00,VWS V14.01,2013-02-05 07:11:00,
2013-02-05 01:16:00,31.3,28.2,29.85,ENE,61,0.0,0.0,88,0.00,,CLR,0.00,0.00,VWS V14.01,2013-02-05 07:16:00,
2013-02-05 01:21:00,31.2,28.1,29.85,ENE,61,0.0,0.0,88,0.00,,CLR,0.00,0.00,VWS V14.01,2013-02-05 07:21:00,
2013-02-05 01:26:00,31.1,28.2,29.85,ENE,61,0.0,0.0,89,0.00,,CLR,0.00,0.00,VWS V14.01,2013-02-05 07:26:00,
2013-02-05 01:31:00,31.1,28.2,29.85,ENE,61,0.0,0.0,89,0.00,,CLR,0.00,0.00,VWS V14.01,2013-02-05 07:31:00,
2013-02-05 01:36:00,31.1,28.5,29.85,ENE,61,0.0,0.0,90,0.00,,CLR,0.00,0.00,VWS V14.01,2013-02-05 07:36:00,
2013-02-05 01:41:00,31.1,28.5,29.85,ENE,61,0.0,0.0,90,0.00,,CLR,0.00,0.00,VWS V14.01,2013-02-05 07:41:00,
2013-02-05 01:46:00,30.9,28.3,29.86,ENE,61,0.0,0.0,90,0.00,,CLR,0.00,0.00,VWS V14.01,2013-02-05 07:46:00,
2013-02-05 01:51:00,30.8,28.2,29.86,ENE,61,0.0,0.0,90,0.00,,CLR,0.00,0.00,VWS V14.01,2013-02-05 07:51:00,
2013-02-05 01:56:00,30.6,27.8,29.86,ENE,61,0.0,0.0,89,0.00,,CLR,0.00,0.00,VWS V14.01,2013-02-05 07:56:00,
2013-02-05 02:01:00,30.5,27.6,29.85,ENE,61,0.0,0.0,89,0.00,,CLR,0.00,0.00,VWS V14.01,2013-02-05 08:01:00,
2013-02-05 02:06:00,30.3,27.5,29.85,ENE,61,0.0,0.0,89,0.00,,CLR,0.00,0.00,VWS V14.01,2013-02-05 08:06:00,
2013-02-05 02:11:00,30.1,27.5,29.85,ENE,61,0.0,0.0,90,0.00,,CLR,0.00,0.00,VWS V14.01,2013-02-05 08:11:00,
2013-02-05 02:16:00,30.0,27.4,29.85,ENE,61,0.0,0.0,90,0.00,,CLR,0.00,0.00,VWS V14.01,2013-02-05 08:16:00,
2013-02-05 02:21:00,29.9,27.3,29.85,ENE,61,0.0,0.0,90,0.00,,CLR,0.00,0.00,VWS V14.01,2013-02-05 08:21:00,
2013-02-05 02:27:00,29.8,27.2,29.85,ENE,61,0.0,0.0,90,0.00,,CLR,0.00,0.00,VWS V14.01,2013-02-05 08:27:00,
2013-02-05 02:32:00,29.8,27.5,29.85,ENE,61,0.0,0.0,91,0.00,,CLR,0.00,0.00,VWS V14.01,2013-02-05 08:32:00,
2013-02-05 02:37:00,29.9,27.6,29.85,ENE,61,0.0,0.0,91,0.00,,CLR,0.00,0.00,VWS V14.01,2013-02-05 08:37:00,
2013-02-05 02:42:00,29.9,27.6,29.85,ENE,61,0.0,0.0,91,0.00,,CLR,0.00,0.00,VWS V14.01,2013-02-05 08:42:00,
2013-02-05 02:47:00,30.0,28.0,29.85,ENE,61,0.0,0.0,92,0.00,,CLR,0.00,0.00,VWS V14.01,2013-02-05 08:47:00,
2013-02-05 02:52:00,30.1,28.1,29.85,ENE,61,0.0,0.0,92,0.00,,CLR,0.00,0.00,VWS V14.01,2013-02-05 08:52:00,
2013-02-05 02:57:00,30.3,28.3,29.85,ENE,61,0.0,0.0,92,0.00,,CLR,0.00,0.00,VWS V14.01,2013-02-05 08:57:00,
2013-02-05 03:02:00,30.4,28.4,29.85,ENE,61,0.0,0.0,92,0.00,,CLR,0.00,0.00,VWS V14.01,2013-02-05 09:02:00,
2013-02-05 03:07:00,30.3,28.3,29.85,ENE,61,0.0,0.0,92,0.00,,CLR,0.00,0.00,VWS V14.01,2013-02-05 09:07:00,
2013-02-05 03:12:00,30.3,28.3,29.85,ENE,61,0.0,0.0,92,0.00,,CLR,0.00,0.00,VWS V14.01,2013-02-05 09:12:00,
2013-02-05 03:17:00,30.1,28.1,29.85,ENE,61,0.0,0.0,92,0.00,,CLR,0.00,0.00,VWS V14.01,2013-02-05 09:17:00,
2013-02-05 03:22:00,29.8,27.8,29.85,ENE,61,0.0,0.0,92,0.00,,CLR,0.00,0.00,VWS V14.01,2013-02-05 09:22:00,
2013-02-05 03:27:00,29.6,27.6,29.85,ENE,61,0.0,0.0,92,0.00,,CLR,0.00,0.00,VWS V14.01,2013-02-05 09:27:00,
2013-02-05 03:32:00,29.3,27.0,29.85,ENE,61,0.0,0.0,91,0.00,,CLR,0.00,0.00,VWS V14.01,2013-02-05 09:32:00,
2013-02-05 03:37:00,29.2,26.9,29.85,ENE,61,0.0,0.0,91,0.00,,CLR,0.00,0.00,VWS V14.01,2013-02-05 09:37:00,
2013-02-05 03:42:00,29.0,27.0,29.85,ENE,61,0.0,0.0,92,0.00,,CLR,0.00,0.00,VWS V14.01,2013-02-05 09:42:00,
2013-02-05 03:47:00,29.0,27.0,29.85,ENE,61,0.0,0.0,92,0.00,,CLR,0.00,0.00,VWS V14.01,2013-02-05 09:47:00,
2013-02-05 03:52:00,28.8,26.8,29.85,ENE,61,0.0,0.0,92,0.00,,CLR,0.00,0.00,VWS V14.01,2013-02-05 09:52:00,
2013-02-05 03:57:00,28.7,26.7,29.85,ENE,61,0.0,0.0,92,0.00,,CLR,0.00,0.00,VWS V14.01,2013-02-05 09:57:00,
2013-02-05 04:02:00,28.7,26.7,29.85,ENE,61,0.0,1.0,92,0.00,,CLR,0.00,0.00,VWS V14.01,2013-02-05 10:02:00,
2013-02-05 04:07:00,28.6,26.6,29.85,ENE,61,0.0,0.0,92,0.00,,CLR,0.00,0.00,VWS V14.01,2013-02-05 10:07:00,
2013-02-05 04:12:00,28.6,26.6,29.85,ENE,61,0.0,0.0,92,0.00,,CLR,0.00,0.00,VWS V14.01,2013-02-05 10:12:00,
2013-02-05 04:17:00,28.4,26.4,29.85,ENE,61,0.0,0.0,92,0.00,,CLR,0.00,0.00,VWS V14.01,2013-02-05 10:17:00,
2013-02-05 04:22:00,28.2,26.2,29.85,ENE,61,0.0,0.0,92,0.00,,CLR,0.00,0.00,VWS V14.01,2013-02-05 10:22:00,
2013-02-05 04:27:00,28.0,26.0,29.85,ENE,61,0.0,0.0,92,0.00,,CLR,0.00,0.00,VWS V14.01,2013-02-05 10:27:00,
2013-02-05 04:32:00,27.9,25.9,29.86,ENE,61,0.0,0.0,92,0.00,,CLR,0.00,0.00,VWS V14.01,2013-02-05 10:32:00,
2013-02-05 04:38:00,27.9,25.9,29.86,ENE,61,0.0,0.0,92,0.00,,CLR,0.00,0.00,VWS V14.01,2013-02-05 10:38:00,
2013-02-05 04:43:00,27.8,25.8,29.86,ENE,61,0.0,0.0,92,0.00,,CLR,0.00,0.00,VWS V14.01,2013-02-05 10:43:00,
2013-02-05 04:48:00,27.7,25.7,29.86,ENE,61,0.0,0.0,92,0.00,,CLR,0.00,0.00,VWS V14.01,2013-02-05 10:48:00,
2013-02-05 04:53:00,27.5,25.5,29.86,ENE,61,0.0,0.0,92,0.00,,CLR,0.00,0.00,VWS V14.01,2013-02-05 10:53:00,
2013-02-05 04:58:00,27.3,25.3,29.86,ENE,61,0.0,0.0,92,0.00,,CLR,0.00,0.00,VWS V14.01,2013-02-05 10:58:00,
2013-02-05 05:03:00,27.2,25.2,29.87,ENE,61,0.0,0.0,92,0.00,,CLR,0.00,0.00,VWS V14.01,2013-02-05 11:03:00,
2013-02-05 05:08:00,27.2,25.5,29.87,ENE,61,0.0,0.0,93,0.00,,CLR,0.00,0.00,VWS V14.01,2013-02-05 11:08:00,
2013-02-05 05:13:00,27.1,25.4,29.87,ENE,61,0.0,0.0,93,0.00,,CLR,0.00,0.00,VWS V14.01,2013-02-05 11:13:00,
2013-02-05 05:18:00,27.1,25.4,29.87,ENE,61,0.0,0.0,93,0.00,,CLR,0.00,0.00,VWS V14.01,2013-02-05 11:18:00,
2013-02-05 05:23:00,27.1,25.4,29.87,ENE,61,0.0,0.0,93,0.00,,CLR,0.00,0.00,VWS V14.01,2013-02-05 11:23:00,
2013-02-05 05:28:00,27.1,25.4,29.87,ENE,61,0.0,0.0,93,0.00,,CLR,0.00,0.00,VWS V14.01,2013-02-05 11:28:00,
2013-02-05 05:33:00,27.4,25.6,29.86,ENE,61,0.0,0.0,93,0.00,,CLR,0.00,0.00,VWS V14.01,2013-02-05 11:33:00,
2013-02-05 05:38:00,27.4,25.6,29.86,ENE,61,0.0,0.0,93,0.00,,CLR,0.00,0.00,VWS V14.01,2013-02-05 11:38:00,
2013-02-05 05:43:00,27.2,25.5,29.86,ENE,61,0.0,0.0,93,0.00,,CLR,0.00,0.00,VWS V14.01,2013-02-05 11:43:00,
2013-02-05 05:48:00,27.1,25.4,29.86,ENE,61,0.0,0.0,93,0.00,,CLR,0.00,0.00,VWS V14.01,2013-02-05 11:48:00,
2013-02-05 05:53:00,27.0,25.2,29.86,ENE,61,0.0,0.0,93,0.00,,CLR,0.00,0.00,VWS V14.01,2013-02-05 11:53:00,
2013-02-05 05:58:00,26.7,25.0,29.86,ENE,61,0.0,0.0,93,0.00,,CLR,0.00,0.00,VWS V14.01,2013-02-05 11:58:00,
2013-02-05 06:03:00,26.6,24.9,29.87,ENE,61,0.0,0.0,93,0.00,,CLR,0.00,0.00,VWS V14.01,2013-02-05 12:03:00,
2013-02-05 06:08:00,26.5,24.8,29.87,ENE,61,0.0,0.0,93,0.00,,CLR,0.00,0.00,VWS V14.01,2013-02-05 12:08:00,
2013-02-05 06:13:00,26.4,24.6,29.87,ENE,61,0.0,0.0,93,0.00,,CLR,0.00,0.00,VWS V14.01,2013-02-05 12:13:00,
2013-02-05 06:18:00,26.2,24.5,29.87,ENE,61,0.0,0.0,93,0.00,,CLR,0.00,0.00,VWS V14.01,2013-02-05 12:18:00,
2013-02-05 06:23:00,26.1,24.4,29.87,ENE,61,0.0,0.0,93,0.00,,CLR,0.00,0.00,VWS V14.01,2013-02-05 12:23:00,
2013-02-05 06:28:00,25.9,24.2,29.87,ENE,61,0.0,0.0,93,0.00,,CLR,0.00,0.00,VWS V14.01,2013-02-05 12:28:00,
2013-02-05 06:33:00,25.7,24.0,29.88,ENE,61,0.0,0.0,93,0.00,,CLR,0.00,0.00,VWS V14.01,2013-02-05 12:33:00,
2013-02-05 06:38:00,25.5,23.8,29.88,ENE,61,0.0,0.0,93,0.00,,CLR,0.00,0.00,VWS V14.01,2013-02-05 12:38:00,
2013-02-05 06:43:00,25.4,23.7,29.88,ENE,61,0.0,0.0,93,0.00,,CLR,0.00,0.00,VWS V14.01,2013-02-05 12:43:00,
2013-02-05 06:49:00,25.4,23.7,29.88,ENE,61,0.0,0.0,93,0.00,,CLR,0.00,0.00,VWS V14.01,2013-02-05 12:49:00,
2013-02-05 06:54:00,25.5,23.8,29.88,ENE,61,0.0,0.0,93,0.00,,CLR,0.00,0.00,VWS V14.01,2013-02-05 12:54:00,
2013-02-05 06:59:00,25.5,23.8,29.88,ENE,61,0.0,0.0,93,0.00,,CLR,0.00,0.00,VWS V14.01,2013-02-05 12:59:00,
2013-02-05 07:04:00,25.5,23.8,29.88,ENE,61,0.0,0.0,93,0.00,,CLR,0.00,0.00,VWS V14.01,2013-02-05 13:04:00,
2013-02-05 07:09:00,25.5,23.8,29.88,ENE,61,0.0,0.0,93,0.00,,CLR,0.00,0.00,VWS V14.01,2013-02-05 13:09:00,
2013-02-05 07:14:00,25.5,24.0,29.88,ENE,61,0.0,0.0,94,0.00,,CLR,0.00,0.00,VWS V14.01,2013-02-05 13:14:00,
2013-02-05 07:19:00,25.5,24.0,29.89,ENE,61,0.0,0.0,94,0.00,,CLR,0.00,5.00,VWS V14.01,2013-02-05 13:19:00,
2013-02-05 07:24:00,25.4,23.7,29.89,ENE,61,0.0,0.0,93,0.00,,CLR,0.00,7.00,VWS V14.01,2013-02-05 13:24:00,
2013-02-05 07:29:00,25.3,23.6,29.89,ENE,61,0.0,0.0,93,0.00,,CLR,0.00,9.00,VWS V14.01,2013-02-05 13:29:00,
2013-02-05 07:34:00,25.2,23.5,29.89,ENE,61,0.0,0.0,93,0.00,,CLR,0.00,11.00,VWS V14.01,2013-02-05 13:34:00,
2013-02-05 07:39:00,25.1,23.4,29.89,ENE,61,0.0,0.0,93,0.00,,CLR,0.00,12.00,VWS V14.01,2013-02-05 13:39:00,
2013-02-05 07:44:00,25.1,23.4,29.89,ENE,61,0.0,0.0,93,0.00,,CLR,0.00,14.00,VWS V14.01,2013-02-05 13:44:00,
2013-02-05 07:49:00,25.1,23.6,29.90,ENE,61,0.0,0.0,94,0.00,,CLR,0.00,18.00,VWS V14.01,2013-02-05 13:49:00,
2013-02-05 07:54:00,25.0,23.5,29.90,ENE,61,0.0,0.0,94,0.00,,CLR,0.00,19.00,VWS V14.01,2013-02-05 13:54:00,
2013-02-05 07:59:00,25.1,23.6,29.90,ENE,61,0.0,0.0,94,0.00,,CLR,0.00,21.00,VWS V14.01,2013-02-05 13:59:00,
2013-02-05 08:04:00,25.2,23.7,29.90,ENE,61,0.0,0.0,94,0.00,,CLR,0.00,26.00,VWS V14.01,2013-02-05 14:04:00,
2013-02-05 08:09:00,25.3,23.8,29.90,ENE,61,0.0,0.0,94,0.00,,CLR,0.00,28.00,VWS V14.01,2013-02-05 14:09:00,
2013-02-05 08:14:00,25.5,24.0,29.90,ENE,61,0.0,0.0,94,0.00,,CLR,0.00,33.00,VWS V14.01,2013-02-05 14:14:00,
2013-02-05 08:19:00,25.8,24.3,29.91,ENE,61,0.0,0.0,94,0.00,,CLR,0.00,67.00,VWS V14.01,2013-02-05 14:19:00,
2013-02-05 08:24:00,26.3,25.1,29.91,ENE,61,0.0,0.0,95,0.00,,CLR,0.00,72.00,VWS V14.01,2013-02-05 14:24:00,
2013-02-05 08:29:00,27.1,25.9,29.91,ENE,61,0.0,0.0,95,0.00,,CLR,0.00,81.00,VWS V14.01,2013-02-05 14:29:00,
2013-02-05 08:34:00,27.7,26.5,29.91,ENE,61,0.0,0.0,95,0.00,,CLR,0.00,109.00,VWS V14.01,2013-02-05 14:34:00,
2013-02-05 08:39:00,28.2,27.0,29.91,ENE,61,0.0,0.0,95,0.00,,CLR,0.00,204.00,VWS V14.01,2013-02-05 14:39:00,
2013-02-05 08:44:00,29.1,28.1,29.91,ENE,61,0.0,0.0,96,0.00,,CLR,0.00,200.00,VWS V14.01,2013-02-05 14:44:00,
2013-02-05 08:49:00,29.9,28.9,29.92,North,355,0.0,0.0,96,0.00,,CLR,0.00,156.00,VWS V14.01,2013-02-05 14:49:00,
2013-02-05 08:54:00,30.7,29.7,29.92,SE,142,0.0,0.0,96,0.00,,CLR,0.00,246.00,VWS V14.01,2013-02-05 14:54:00,
2013-02-05 08:59:00,31.5,30.5,29.92,SE,142,0.0,0.0,96,0.00,,CLR,0.00,251.00,VWS V14.01,2013-02-05 14:59:00,
2013-02-05 09:04:00,32.0,31.0,29.92,SE,142,0.0,0.0,96,0.00,,CLR,0.00,269.00,VWS V14.01,2013-02-05 15:04:00,
2013-02-05 09:09:00,32.8,31.8,29.92,SE,142,0.0,0.0,96,0.00,,CLR,0.00,288.00,VWS V14.01,2013-02-05 15:09:00,
2013-02-05 09:15:00,33.5,32.5,29.92,SE,142,0.0,1.0,96,0.00,,CLR,0.00,304.00,VWS V14.01,2013-02-05 15:15:00,
2013-02-05 09:20:00,34.4,33.4,29.93,SE,142,0.0,2.0,96,0.00,,CLR,0.00,316.00,VWS V14.01,2013-02-05 15:20:00,
2013-02-05 09:25:00,34.9,33.9,29.93,SE,144,0.0,3.0,96,0.00,,CLR,0.00,327.00,VWS V14.01,2013-02-05 15:25:00,
2013-02-05 09:30:00,35.6,34.6,29.93,WSW,243,2.0,3.0,96,0.00,,CLR,0.00,343.00,VWS V14.01,2013-02-05 15:30:00,
2013-02-05 09:35:00,36.5,35.7,29.93,South,175,0.0,3.0,97,0.00,,CLR,0.00,359.00,VWS V14.01,2013-02-05 15:35:00,
2013-02-05 09:40:00,37.4,36.4,29.93,SW,233,0.0,4.0,96,0.00,,CLR,0.00,369.00,VWS V14.01,2013-02-05 15:40:00,
2013-02-05 09:45:00,38.3,37.3,29.93,West,267,0.0,3.0,96,0.00,,CLR,0.00,392.00,VWS V14.01,2013-02-05 15:45:00,
2013-02-05 09:50:00,39.4,38.4,29.93,South,169,0.0,4.0,96,0.00,,CLR,0.00,411.00,VWS V14.01,2013-02-05 15:50:00,
2013-02-05 09:55:00,40.6,39.3,29.93,SSE,159,0.0,2.0,95,0.00,,CLR,0.00,432.00,VWS V14.01,2013-02-05 15:55:00,
2013-02-05 10:00:00,41.8,39.1,29.93,SW,222,0.0,5.0,90,0.00,,CLR,0.00,443.00,VWS V14.01,2013-02-05 16:00:00,
2013-02-05 10:05:00,42.9,39.3,29.93,South,184,2.0,2.0,87,0.00,,CLR,0.00,466.00,VWS V14.01,2013-02-05 16:05:00,
2013-02-05 10:10:00,44.2,39.1,29.93,WSW,238,2.0,5.0,82,0.00,,CLR,0.00,483.00,VWS V14.01,2013-02-05 16:10:00,
2013-02-05 10:15:00,45.0,38.9,29.93,WSW,254,0.0,5.0,79,0.00,,CLR,0.00,492.00,VWS V14.01,2013-02-05 16:15:00,
2013-02-05 14:34:00,63.3,34.5,29.90,NNW,330,0.0,9.0,34,0.00,,CLR,0.01,512.00,VWS V14.01,2013-02-05 20:34:00,
2013-02-05 14:40:00,63.1,34.3,29.90,WNW,284,5.0,8.0,34,0.00,,CLR,0.01,503.00,VWS V14.01,2013-02-05 20:40:00,
2013-02-05 14:45:00,62.9,34.8,29.91,WSW,249,8.0,14.0,35,0.00,,CLR,0.01,490.00,VWS V14.01,2013-02-05 20:45:00,
2013-02-05 14:50:00,62.7,34.7,29.91,West,281,5.0,11.0,35,0.00,,CLR,0.01,482.00,VWS V14.01,2013-02-05 20:50:00,
2013-02-05 14:55:00,62.6,36.7,29.91,WSW,246,5.0,9.0,38,0.00,,CLR,0.01,468.00,VWS V14.01,2013-02-05 20:55:00,
2013-02-05 15:00:00,62.7,36.8,29.91,WSW,243,1.0,7.0,38,0.00,,CLR,0.01,454.00,VWS V14.01,2013-02-05 21:00:00,
2013-02-05 15:05:00,63.0,36.3,29.91,WSW,242,4.0,8.0,37,0.00,,CLR,0.01,445.00,VWS V14.01,2013-02-05 21:05:00,
2013-02-05 15:10:00,63.0,36.3,29.91,WSW,255,2.0,10.0,37,0.00,,CLR,0.01,432.00,VWS V14.01,2013-02-05 21:10:00,
2013-02-05 15:15:00,62.7,36.8,29.91,NNW,333,0.0,7.0,38,0.00,,CLR,0.01,418.00,VWS V14.01,2013-02-05 21:15:00,
2013-02-05 15:20:00,62.4,35.8,29.91,WNW,284,6.0,14.0,37,0.00,,CLR,0.01,406.00,VWS V14.01,2013-02-05 21:20:00,
2013-02-05 15:25:00,62.2,35.6,29.91,West,271,3.0,12.0,37,0.00,,CLR,0.01,390.00,VWS V14.01,2013-02-05 21:25:00,
2013-02-05 15:30:00,62.1,36.2,29.91,WNW,284,0.0,6.0,38,0.00,,CLR,0.01,381.00,VWS V14.01,2013-02-05 21:30:00,
2013-02-05 15:35:00,62.1,36.9,29.91,WNW,288,1.0,8.0,39,0.00,,CLR,0.01,366.00,VWS V14.01,2013-02-05 21:35:00,
2013-02-05 15:40:00,62.3,38.3,29.91,West,272,1.0,5.0,41,0.00,,CLR,0.01,348.00,VWS V14.01,2013-02-05 21:40:00,
2013-02-05 15:45:00,62.3,37.7,29.91,WNW,296,1.0,8.0,40,0.00,,CLR,0.01,336.00,VWS V14.01,2013-02-05 21:45:00,
2013-02-05 15:50:00,62.5,37.9,29.91,North,360,0.0,4.0,40,0.00,,CLR,0.01,322.00,VWS V14.01,2013-02-05 21:50:00,
2013-02-05 15:55:00,62.6,37.3,29.91,West,273,4.0,5.0,39,0.00,,CLR,0.01,309.00,VWS V14.01,2013-02-05 21:55:00,
2013-02-05 16:00:00,62.4,39.0,29.91,West,271,2.0,6.0,42,0.00,,CLR,0.01,292.00,VWS V14.01,2013-02-05 22:00:00,
2013-02-05 16:05:00,62.2,37.6,29.91,WSW,254,3.0,8.0,40,0.00,,CLR,0.01,276.00,VWS V14.01,2013-02-05 22:05:00,
2013-02-05 16:10:00,61.6,37.1,29.91,NW,313,4.0,9.0,40,0.00,,CLR,0.01,262.00,VWS V14.01,2013-02-05 22:10:00,
2013-02-05 16:15:00,61.4,37.5,29.91,WNW,299,2.0,4.0,41,0.00,,CLR,0.01,244.00,VWS V14.01,2013-02-05 22:15:00,
2013-02-05 16:21:00,61.5,37.6,29.91,WNW,302,5.0,6.0,41,0.00,,CLR,0.01,230.00,VWS V14.01,2013-02-05 22:21:00,
2013-02-05 16:26:00,61.3,37.4,29.91,WSW,253,2.0,5.0,41,0.00,,CLR,0.01,218.00,VWS V14.01,2013-02-05 22:26:00,
2013-02-05 16:31:00,61.1,37.9,29.91,WSW,257,5.0,6.0,42,0.00,,CLR,0.01,202.00,VWS V14.01,2013-02-05 22:31:00,
2013-02-05 16:36:00,60.7,37.5,29.91,WSW,244,3.0,7.0,42,0.00,,CLR,0.01,188.00,VWS V14.01,2013-02-05 22:36:00,
2013-02-05 16:41:00,60.5,37.9,29.91,West,275,2.0,5.0,43,0.00,,CLR,0.01,172.00,VWS V14.01,2013-02-05 22:41:00,
2013-02-05 16:46:00,60.5,37.3,29.91,WSW,257,1.0,4.0,42,0.00,,CLR,0.01,156.00,VWS V14.01,2013-02-05 22:46:00,
2013-02-05 16:51:00,60.5,37.9,29.91,SW,230,2.0,5.0,43,0.00,,CLR,0.01,142.00,VWS V14.01,2013-02-05 22:51:00,
2013-02-05 16:56:00,60.2,37.0,29.91,WSW,245,3.0,7.0,42,0.00,,CLR,0.01,123.00,VWS V14.01,2013-02-05 22:56:00,
2013-02-05 17:01:00,60.1,37.5,29.91,West,265,3.0,5.0,43,0.00,,CLR,0.01,105.00,VWS V14.01,2013-02-05 23:01:00,
2013-02-05 17:06:00,59.9,36.8,29.91,WNW,288,0.0,0.0,42,0.00,,CLR,0.01,69.00,VWS V14.01,2013-02-05 23:06:00,
2013-02-05 17:11:00,59.5,37.0,29.91,WNW,287,0.0,0.0,43,0.00,,CLR,0.01,44.00,VWS V14.01,2013-02-05 23:11:00,
2013-02-05 17:16:00,59.4,36.3,29.92,WNW,288,0.0,0.0,42,0.00,,CLR,0.01,26.00,VWS V14.01,2013-02-05 23:16:00,
2013-02-05 17:21:00,59.1,36.0,29.92,WNW,287,0.0,0.0,42,0.00,,CLR,0.01,23.00,VWS V14.01,2013-02-05 23:21:00,
2013-02-05 17:26:00,59.0,35.3,29.92,WNW,288,0.0,0.0,41,0.00,,CLR,0.01,19.00,VWS V14.01,2013-02-05 23:26:00,
2013-02-05 17:31:00,59.0,36.0,29.92,WNW,287,0.0,0.0,42,0.00,,CLR,0.01,12.00,VWS V14.01,2013-02-05 23:31:00,
2013-02-05 17:36:00,58.5,35.5,29.92,WNW,288,0.0,0.0,42,0.00,,CLR,0.01,9.00,VWS V14.01,2013-02-05 23:36:00,
2013-02-05 17:41:00,58.2,35.2,29.92,WNW,287,0.0,0.0,42,0.00,,CLR,0.01,5.00,VWS V14.01,2013-02-05 23:41:00,
2013-02-05 17:46:00,57.7,35.4,29.92,WNW,288,0.0,0.0,43,0.00,,CLR,0.01,0.00,VWS V14.01,2013-02-05 23:46:00,
2013-02-05 17:51:00,57.2,34.9,29.92,WNW,288,0.0,0.0,43,0.00,,CLR,0.01,0.00,VWS V14.01,2013-02-05 23:51:00,
2013-02-05 17:56:00,56.8,35.1,29.92,WNW,288,0.0,0.0,44,0.00,,CLR,0.01,0.00,VWS V14.01,2013-02-05 23:56:00,
2013-02-05 18:01:00,56.4,34.8,29.93,WNW,287,0.0,0.0,44,0.00,,CLR,0.01,0.00,VWS V14.01,2013-02-06 00:01:00,
2013-02-05 18:07:00,56.0,35.0,29.93,WNW,288,0.0,0.0,45,0.00,,CLR,0.01,0.00,VWS V14.01,2013-02-06 00:07:00,
2013-02-05 18:12:00,55.5,34.5,29.93,WNW,288,0.0,0.0,45,0.00,,CLR,0.01,0.00,VWS V14.01,2013-02-06 00:12:00,
2013-02-05 18:17:00,54.6,34.2,29.93,WNW,288,0.0,0.0,46,0.00,,CLR,0.01,0.00,VWS V14.01,2013-02-06 00:17:00,
2013-02-05 18:22:00,53.9,34.2,29.93,WNW,288,0.0,0.0,47,0.00,,CLR,0.01,0.00,VWS V14.01,2013-02-06 00:22:00,
2013-02-05 18:27:00,53.5,34.3,29.93,WNW,287,0.0,0.0,48,0.00,,CLR,0.01,0.00,VWS V14.01,2013-02-06 00:27:00,
2013-02-05 18:32:00,53.2,34.0,29.94,WNW,287,0.0,0.0,48,0.00,,CLR,0.01,0.00,VWS V14.01,2013-02-06 00:32:00,
2013-02-05 18:37:00,52.9,34.3,29.94,WNW,288,0.0,0.0,49,0.00,,CLR,0.01,0.00,VWS V14.01,2013-02-06 00:37:00,
2013-02-05 18:42:00,52.7,34.1,29.94,WNW,287,0.0,0.0,49,0.00,,CLR,0.01,0.00,VWS V14.01,2013-02-06 00:42:00,
2013-02-05 18:47:00,52.5,33.9,29.95,WNW,288,0.0,0.0,49,0.00,,CLR,0.01,0.00,VWS V14.01,2013-02-06 00:47:00,
2013-02-05 18:52:00,52.2,33.6,29.95,WNW,288,0.0,0.0,49,0.00,,CLR,0.01,0.00,VWS V14.01,2013-02-06 00:52:00,
2013-02-05 18:57:00,51.6,33.6,29.95,WNW,288,0.0,0.0,50,0.00,,CLR,0.01,0.00,VWS V14.01,2013-02-06 00:57:00,
2013-02-05 19:02:00,51.2,34.2,29.95,WNW,288,0.0,0.0,52,0.00,,CLR,0.01,0.00,VWS V14.01,2013-02-06 01:02:00,
2013-02-05 19:07:00,51.0,34.0,29.95,WNW,288,0.0,0.0,52,0.00,,CLR,0.01,0.00,VWS V14.01,2013-02-06 01:07:00,
2013-02-05 19:12:00,50.6,34.1,29.95,WNW,287,0.0,0.0,53,0.00,,CLR,0.01,0.00,VWS V14.01,2013-02-06 01:12:00,
2013-02-05 19:17:00,50.3,33.8,29.96,WNW,288,0.0,0.0,53,0.00,,CLR,0.01,0.00,VWS V14.01,2013-02-06 01:17:00,
2013-02-05 19:22:00,49.9,33.5,29.96,WNW,287,0.0,0.0,53,0.00,,CLR,0.01,0.00,VWS V14.01,2013-02-06 01:22:00,
2013-02-05 19:27:00,49.7,33.8,29.96,WNW,287,0.0,0.0,54,0.00,,CLR,0.01,0.00,VWS V14.01,2013-02-06 01:27:00,
2013-02-05 19:32:00,49.6,33.7,29.96,WNW,288,0.0,0.0,54,0.00,,CLR,0.01,0.00,VWS V14.01,2013-02-06 01:32:00,
2013-02-05 19:37:00,49.4,33.5,29.96,WNW,287,0.0,0.0,54,0.00,,CLR,0.01,0.00,VWS V14.01,2013-02-06 01:37:00,
2013-02-05 19:42:00,49.2,33.3,29.96,WNW,287,0.0,0.0,54,0.00,,CLR,0.01,0.00,VWS V14.01,2013-02-06 01:42:00,
2013-02-05 19:48:00,49.0,33.5,29.97,WNW,287,0.0,0.0,55,0.00,,CLR,0.01,0.00,VWS V14.01,2013-02-06 01:48:00,
2013-02-05 19:53:00,48.8,33.8,29.97,WNW,288,0.0,0.0,56,0.00,,CLR,0.01,0.00,VWS V14.01,2013-02-06 01:53:00,
2013-02-05 19:58:00,48.7,33.3,29.97,WNW,288,0.0,0.0,55,0.00,,CLR,0.01,0.00,VWS V14.01,2013-02-06 01:58:00,
2013-02-05 20:03:00,48.5,33.5,29.98,WNW,288,0.0,0.0,56,0.00,,CLR,0.01,0.00,VWS V14.01,2013-02-06 02:03:00,
2013-02-05 20:08:00,48.3,33.3,29.98,WNW,288,0.0,0.0,56,0.00,,CLR,0.01,0.00,VWS V14.01,2013-02-06 02:08:00,
2013-02-05 20:13:00,47.9,33.0,29.98,WNW,288,0.0,0.0,56,0.00,,CLR,0.01,0.00,VWS V14.01,2013-02-06 02:13:00,
2013-02-05 20:18:00,47.7,32.8,29.98,WNW,288,0.0,0.0,56,0.00,,CLR,0.01,0.00,VWS V14.01,2013-02-06 02:18:00,
2013-02-05 20:23:00,47.5,32.6,29.98,WNW,288,0.0,0.0,56,0.00,,CLR,0.01,0.00,VWS V14.01,2013-02-06 02:23:00,
2013-02-05 20:28:00,47.4,32.5,29.98,WNW,288,0.0,0.0,56,0.00,,CLR,0.01,0.00,VWS V14.01,2013-02-06 02:28:00,
2013-02-05 20:33:00,47.2,32.3,29.98,WNW,288,0.0,0.0,56,0.00,,CLR,0.01,0.00,VWS V14.01,2013-02-06 02:33:00,
2013-02-05 20:38:00,46.9,32.0,29.98,WNW,288,0.0,0.0,56,0.00,,CLR,0.01,0.00,VWS V14.01,2013-02-06 02:38:00,
2013-02-05 20:43:00,46.5,32.1,29.98,WNW,287,0.0,0.0,57,0.00,,CLR,0.01,0.00,VWS V14.01,2013-02-06 02:43:00,
2013-02-05 20:48:00,46.0,32.1,29.99,WNW,288,0.0,0.0,58,0.00,,CLR,0.01,0.00,VWS V14.01,2013-02-06 02:48:00,
2013-02-05 20:53:00,45.2,31.7,29.99,WNW,288,0.0,0.0,59,0.00,,CLR,0.01,0.00,VWS V14.01,2013-02-06 02:53:00,
2013-02-05 20:58:00,44.6,31.6,29.99,WNW,288,0.0,0.0,60,0.00,,CLR,0.01,0.00,VWS V14.01,2013-02-06 02:58:00,
2013-02-05 21:03:00,43.8,31.6,29.99,WNW,287,0.0,0.0,62,0.00,,CLR,0.01,0.00,VWS V14.01,2013-02-06 03:03:00,
2013-02-05 21:09:00,43.4,32.0,29.99,WNW,288,0.0,0.0,64,0.00,,CLR,0.01,0.00,VWS V14.01,2013-02-06 03:09:00,
2013-02-05 21:14:00,42.9,32.0,29.99,WNW,288,0.0,0.0,65,0.00,,CLR,0.01,0.00,VWS V14.01,2013-02-06 03:14:00,
2013-02-05 21:19:00,42.3,31.8,29.99,WNW,288,0.0,0.0,66,0.00,,CLR,0.01,0.00,VWS V14.01,2013-02-06 03:19:00,
2013-02-05 21:24:00,41.9,31.4,29.99,WNW,288,0.0,0.0,66,0.00,,CLR,0.01,0.00,VWS V14.01,2013-02-06 03:24:00,
2013-02-05 21:29:00,41.9,32.1,29.99,WNW,288,0.0,0.0,68,0.00,,CLR,0.01,0.00,VWS V14.01,2013-02-06 03:29:00,
2013-02-05 21:34:00,41.9,31.8,30.00,WNW,288,0.0,0.0,67,0.00,,CLR,0.01,0.00,VWS V14.01,2013-02-06 03:34:00,
2013-02-05 21:39:00,41.7,31.2,30.00,WNW,287,0.0,0.0,66,0.00,,CLR,0.01,0.00,VWS V14.01,2013-02-06 03:39:00,
2013-02-05 21:44:00,41.4,31.3,30.00,WNW,288,0.0,0.0,67,0.00,,CLR,0.01,0.00,VWS V14.01,2013-02-06 03:44:00,
2013-02-05 21:49:00,41.1,31.4,30.01,WNW,287,0.0,0.0,68,0.00,,CLR,0.01,0.00,VWS V14.01,2013-02-06 03:49:00,
2013-02-05 21:54:00,40.9,31.2,30.01,WNW,287,0.0,0.0,68,0.00,,CLR,0.01,0.00,VWS V14.01,2013-02-06 03:54:00,
2013-02-05 21:59:00,40.6,30.9,30.01,WNW,287,0.0,0.0,68,0.00,,CLR,0.01,0.00,VWS V14.01,2013-02-06 03:59:00,
2013-02-05 22:04:00,40.3,31.7,30.01,WNW,288,0.0,0.0,71,0.00,,CLR,0.01,0.00,VWS V14.01,2013-02-06 04:04:00,
2013-02-05 22:09:00,40.2,31.9,30.01,WNW,287,0.0,0.0,72,0.00,,CLR,0.01,0.00,VWS V14.01,2013-02-06 04:09:00,
2013-02-05 22:14:00,40.2,31.6,30.01,WNW,288,0.0,0.0,71,0.00,,CLR,0.01,0.00,VWS V14.01,2013-02-06 04:14:00,
2013-02-05 22:19:00,40.1,31.5,30.01,WNW,287,0.0,0.0,71,0.00,,CLR,0.01,0.00,VWS V14.01,2013-02-06 04:19:00,
2013-02-05 22:24:00,40.0,31.7,30.01,WNW,287,0.0,0.0,72,0.00,,CLR,0.01,0.00,VWS V14.01,2013-02-06 04:24:00,
2013-02-05 22:29:00,40.1,31.8,30.01,WNW,287,0.0,0.0,72,0.00,,CLR,0.01,0.00,VWS V14.01,2013-02-06 04:29:00,
2013-02-05 22:34:00,40.4,32.1,30.01,WNW,287,0.0,1.0,72,0.00,,CLR,0.01,0.00,VWS V14.01,2013-02-06 04:34:00,
2013-02-05 22:39:00,40.4,31.8,30.01,WNW,287,0.0,0.0,71,0.00,,CLR,0.01,0.00,VWS V14.01,2013-02-06 04:39:00,
2013-02-05 22:44:00,40.2,31.2,30.01,WNW,288,0.0,0.0,70,0.00,,CLR,0.01,0.00,VWS V14.01,2013-02-06 04:44:00,
2013-02-05 22:49:00,39.8,30.8,30.01,WNW,287,0.0,0.0,70,0.00,,CLR,0.01,0.00,VWS V14.01,2013-02-06 04:49:00,
2013-02-05 22:55:00,39.4,31.1,30.01,WNW,288,0.0,0.0,72,0.00,,CLR,0.01,0.00,VWS V14.01,2013-02-06 04:55:00,
2013-02-05 23:00:00,39.1,31.2,30.01,WNW,288,0.0,0.0,73,0.00,,CLR,0.01,0.00,VWS V14.01,2013-02-06 05:00:00,
2013-02-05 23:01:00,39.0,30.8,30.01,WNW,288,0.0,0.0,72,0.00,,CLR,0.01,0.00,VWS V14.01,2013-02-06 05:01:00,
2013-02-05 23:02:00,39.0,30.8,30.01,WNW,287,0.0,0.0,72,0.00,,CLR,0.01,0.00,VWS V14.01,2013-02-06 05:02:00,
2013-02-05 23:07:00,38.6,31.0,30.01,WNW,288,0.0,0.0,74,0.00,,CLR,0.01,0.00,VWS V14.01,2013-02-06 05:07:00,
2013-02-05 23:08:00,38.5,31.0,30.01,WNW,288,0.0,1.0,74,0.00,,CLR,0.01,0.00,VWS V14.01,2013-02-06 05:08:00,
2013-02-05 23:13:00,38.2,31.0,30.01,North,10,0.0,2.0,75,0.00,,CLR,0.01,0.00,VWS V14.01,2013-02-06 05:13:00,
2013-02-05 23:18:00,38.6,31.0,30.01,North,10,0.0,0.0,74,0.00,,CLR,0.01,0.00,VWS V14.01,2013-02-06 05:18:00,
2013-02-05 23:23:00,38.6,30.7,30.01,North,10,0.0,0.0,73,0.00,,CLR,0.01,0.00,VWS V14.01,2013-02-06 05:23:00,
2013-02-05 23:28:00,38.4,30.5,30.01,North,10,0.0,0.0,73,0.00,,CLR,0.01,0.00,VWS V14.01,2013-02-06 05:28:00,
2013-02-05 23:33:00,38.3,30.4,30.01,North,10,0.0,0.0,73,0.00,,CLR,0.01,0.00,VWS V14.01,2013-02-06 05:33:00,
2013-02-05 23:38:00,38.0,30.1,30.01,North,10,0.0,0.0,73,0.00,,CLR,0.01,0.00,VWS V14.01,2013-02-06 05:38:00,
2013-02-05 23:43:00,37.7,30.2,30.01,North,10,0.0,0.0,74,0.00,,CLR,0.01,0.00,VWS V14.01,2013-02-06 05:43:00,
2013-02-05 23:48:00,37.4,29.5,30.02,North,10,0.0,0.0,73,0.00,,CLR,0.01,0.00,VWS V14.01,2013-02-06 05:48:00,
2013-02-05 23:53:00,37.0,29.5,30.02,North,10,0.0,0.0,74,0.00,,CLR,0.01,0.00,VWS V14.01,2013-02-06 05:53:00,
2013-02-05 23:58:00,36.7,29.2,30.02,North,10,0.0,0.0,74,0.00,,CLR,0.01,0.00,VWS V14.01,2013-02-06 05:58:00,